AirNav   $300 off a Bose A20 aviation headset
 
 1317 users online  

AL10 Frerichs Airport
Gurley, Alabama, USA

GOING TO GURLEY?


FAA INFORMATION EFFECTIVE 28 FEBRUARY 2019

Location

FAA Identifier: AL10
Lat/Long: 34-39-04.3230N / 086-25-00.9540W
34-39.072050N / 086-25.015900W
34.6512008 / -86.4169317
(estimated)
Elevation: 650 ft. / 198 m (estimated)
Variation: 00W (1985)
From city: 4 miles SW of GURLEY, AL
Time zone: UTC -6 (UTC -5 during Daylight Saving Time)
Zip code: 35748

Airport Operations

Airport use: Private use, PERSONAL USE.
Activation date: 08/1988
Control tower: no
ARTCC: MEMPHIS CENTER
FSS: ANNISTON FLIGHT SERVICE STATION
Attendance: IRREG
Wind indicator: yes
Segmented circle: no

Airport Communications

WX AWOS-3PT at MDQ (14 nm NW): 120.000 (256-829-1242)
WX ASOS at HSV (18 nm W): PHONE 256-772-8074

Nearby radio navigation aids

VOR radial/distance  VOR name  Freq  Var
RQZr127/13.8ROCKET VORTAC112.2002E
DCUr091/25.8DECATUR VOR/DME112.8001W

 
NDB name  Hdg/Dist  Freq  Var  ID
REDSTONE106/13.728704WHUA .... ..- .-
FORT PAYNE286/37.642604WFTP ..-. - .--.

Airport Services

Runway Information

Runway 9/27

Dimensions: 2500 x 60 ft. / 762 x 18 m
Surface: turf
Runway edge lights: low intensity
Runway edge markings: RY 09 & 27 YELLOW RY LIGHT CONES.
Operational restrictions: LANDINGS ON RY 09; TAKEOFFS ON RY 27.
RUNWAY 9  RUNWAY 27
Traffic pattern: rightleft
Obstructions: treespline

Airport Ownership and Management from official FAA records

Ownership: Privately-owned
Owner: JOHN E. FRERICHS
1898 MC MULLEN ROAD
GURLEY, AL 35748
Phone 256--776-2883
Manager: JOHN E. FRERICHS
1898 MC MULLEN ROAD
GURLEY, AL 35748
Phone 256-776-2883

Airport Operational Statistics

Aircraft based on the field: 3
Single engine airplanes: 2
Helicopters: 1
    
Aircraft operations: 15/year
100% local general aviation

Instrument Procedures

There are no published instrument procedures at AL10.

Some nearby airports with instrument procedures:

KHUA - Redstone Army Airfield (13 nm W)
KMDQ - Huntsville Executive Airport / Tom Sharp Jr Field (14 nm NW)
8A1 - Guntersville Municipal Airport - Joe Starnes Field (17 nm SE)
KHSV - Huntsville International Airport-Carl T Jones Field (18 nm W)
4A6 - Scottsboro Municipal Airport-Word Field (20 nm E)
 
Loc | Ops | Rwys | IFR | FBO | Links
Com | Nav | Svcs | Stats | Notes
Area around AL10 (Frerichs Airport)
 
Road maps at: MapQuest Bing Google
 
Aerial photo
WARNING: Photo may not be current or correct
Aerial photo of AL10 (Frerichs Airport)
Photo by Rand Baldwin
Photo taken 19-Sep-2004

Do you have a better or more recent aerial photo of Frerichs Airport that you would like to share? If so, please send us your photo.

 
Sectional chart

 
Airport distance calculator
Flying to Frerichs Airport? Find the distance to fly.

From to AL10

Sunrise and sunset
Times for 22-Mar-2019
 Local
(UTC-5)
 Zulu
(UTC)
Morning civil twilight06:2211:22
Sunrise06:4811:48
Sunset18:5823:58
Evening civil twilight19:2300:23

Current date and time
Zulu (UTC)  22-Mar-2019 14:31:45
Local (UTC-5)  22-Mar-2019 09:31:45
 
METAR
KHUA 
13nm W 
221258Z AUTO 00000KT 10SM CLR 02/01 A3013 RMK AO2 SLP206 T00240005
KMDQ 
14nm NW 
221415Z AUTO 29007KT 10SM CLR 08/01 A3016 RMK A02 T00830014
KHSV 
18nm W 
221353Z 30006KT 10SM CLR 07/03 A3016 RMK AO2 SLP212 T00720033 $
K4A6 
20nm E 
221415Z AUTO 22005KT 10SM CLR 08/01 A3015 RMK AO2
KFYM 
26nm N 
221425Z AUTO 27006KT 10SM CLR 08/02 A3014 RMK A01
KDCU 
26nm W 
221353Z AUTO 29007KT 10SM CLR 08/03 A3017 RMK AO2 SLP216 T00780028
K8A0 
27nm S 
221415Z AUTO 32007KT 10SM CLR 07/00 A3014 RMK AO2
TAF
KHSV 
18nm W 
221120Z 2212/2312 33006KT P6SM FEW250 FM221800 30010G18KT P6SM SKC FM230000 03004KT P6SM SKC
NOTAMs
Click for the latest NOTAMs
NOTAMs are issued by the DoD/FAA and will open in a separate window not controlled by AirNav.

 

 
 

Would you like to see your business listed on this page?

 If your business provides an interesting product or service to pilots, flight crews, aircraft, or users of the Frerichs Airport, you should consider listing it here.  To start the listing process, click on the button below
 
Add a business
 

Other Pages about Frerichs Airport

Update a link
 
Copyright © AirNav, LLC. All rights reserved. Privacy Policy  Contact